Location: Chaumontel
(49.1247°N, 2.4324°E)
Time: 17:00:54
(UTC+00:00)

Envisat - Visible Passes

Search period start: 15 May 2026 00:00
Search period end: 25 May 2026 00:00
Orbit: 761 x 762 km, 98.4° (Epoch: 15 May)

Date Brightness Start Highest point End Pass type
(mag) Time Alt. Az. Time Alt. Az. Time Alt. Az.
15 May 3.6 02:14:29 10° NNE 02:19:29 54° E 02:24:13 11° S visible
16 May 4.7 01:37:10 10° NE 01:41:24 26° E 01:45:37 10° SSE visible
16 May 3.4 03:15:42 10° N 03:20:34 48° WNW 03:25:24 10° SW visible
17 May 5.4 01:00:57 10° ENE 01:03:07 13° E 01:05:17 10° ESE visible
17 May 3.0 02:37:43 10° NNE 02:42:50 85° ESE 02:47:54 10° SSW visible
18 May 4.0 02:00:06 10° NNE 02:04:53 41° E 02:09:39 10° SSE visible
19 May 5.1 01:23:02 10° NE 01:26:45 20° E 01:30:26 10° SE visible
19 May 3.1 03:01:05 10° N 03:06:07 63° WNW 03:11:06 10° SSW visible
20 May 3.3 02:23:14 10° NNE 02:28:17 64° ESE 02:33:19 10° S visible
21 May 4.5 01:45:47 10° NNE 01:50:16 31° E 01:54:44 10° SSE visible
22 May 5.4 01:09:07 10° NE 01:12:02 15° E 01:14:56 10° ESE visible
22 May 3.0 02:46:31 10° NNE 02:51:37 82° WNW 02:56:40 10° SSW visible
23 May 3.8 02:08:48 10° NNE 02:13:43 48° E 02:18:36 10° S visible
24 May 4.8 01:31:33 10° NE 01:35:38 24° E 01:39:40 10° SE visible
24 May 3.3 03:09:55 10° N 03:14:51 53° WNW 03:19:45 10° SW visible
